Weather in Montsevo

Russia / Ryazan Oblast     54°51′49″N   41°44′50″E
temp.,
°C
wind,
m/s
gust,
m/s
humid.,
%
clouds,
%
prec.,
mm/h
press.,
hPa
HPBL,
m
3 march, wed
wed300:00−3wnw51196100 0.0 1007300
03:00−2nw5119597 0.1 1008470
06:00−5nw5119179 0.1 1010324
09:00−6nw6129162 0.1 1012497
12:00−3nw7108780 0.0 1013842
15:00−2nw6107884 0.1 10131181
18:00−4wnw4109180 0.1 1012226
21:00−2w6129390 0.1 1011591
4 march, thu
thu400:00−2wsw71393100 0.1 1008681
03:00−2wsw71391100 0.1 1006648
06:00−1wsw81594100 0.3 1002671
09:000wsw91598100 1.4 1000905
12:00+1w81490100 0.0 1000977
15:000wnw59100100 0.6 1001540
18:00−1wsw4887100 0.4 1000241
21:00−3wsw2289100 2.1 100033
5 march, fri
fri500:00−4wnw2298100 0.5 100057
03:00−5n3596100 1.3 1000190
06:00−8nnw3594100 0.1 1003101
09:00−8n469595 0.1 1006240
12:00−4nnw348788 0.0 1007503
15:00−3wnw237893 0.0 1009767
18:00−7wsw228698 0.0 101021
21:00−9sw349278 0.0 101268
6 march, sat
sat600:00−9wsw479474 0.4 1012124
03:00−11w479337 0.4 1012114
06:00−13wnw36950 0.0 101386
09:00−11nw47930 0.0 1014257
12:00−7nw468761 0.0 1015632
15:00−7nw568481 0.1 1015957
18:00−12nw468795 0.0 1015111
21:00−15wnw338848 0.0 101724
7 march, sun
sun700:00−15wsw44900 0.0 101667
03:00−15sw410890 0.0 1014157
06:00−13ssw6138725 0.0 1011299
09:00−8sw9177762 0.0 1007792
12:00−6sw111892100 0.3 10031185
15:00−4sw101792100 1.4 9991254
18:00−3sw91694100 1.8 9951082
21:00−3w101495100 4.4 993973